User: anonymous
Location: Oshawa
(43.9000°N, 78.8670°W)
Time: 11:55:42
(UTC-04:00)
Language:

Envisat - Orbit

View from above orbital plane
View from above orbital plane
View from above satellite
View from above satellite

Ground track
Ground track

The orbit data is extracted from the following two-line orbital elements,

1 27386U 02009A   14213.18209502  .00000031  00000-0  24682-4 0  3292
2 27386 098.3800 277.4189 0001272 111.8104 307.1469 14.37722499650045
Epoch (UTC): 01 August 2014 04:22:13
Eccentricity: 0.0001272
inclination: 98.3800°
perigee height: 765 km
apogee height: 767 km
right ascension of ascending node: 277.4189°
argument of perigee: 111.8104°
revolutions per day: 14.37722499
mean anomaly at epoch: 307.1469°
orbit number at epoch: 65004

The dashed part of the orbit path shows where the satellite is in the earth's shadow,  

DLR